Point Mugu NAWC, CA

10:47 AM PST on January 21, 2017 (GMT -0800)
Point Mugu

Weather History for KNTD - September, 2014

Change the Weather History Date:

Saturday, September 13, 2014

  Actual Average Record
Temperature  
Mean Temperature 73 °F -  
Max Temperature 84 °F 71 °F 84 °F (2014)
Min Temperature 64 °F 57 °F 51 °F (2001)
Cooling Degree Days 8    
Growing Degree Days 23 (Base 50)    
Moisture  
Dew Point 62 °F    
Average Humidity 75    
Maximum Humidity 87    
Minimum Humidity 51    
Precipitation  
Precipitation 0.00 in - - ()
Sea Level Pressure  
Sea Level Pressure 29.77 in    
Wind  
Wind Speed 3 mph (NW)    
Max Wind Speed 17 mph    
Max Gust Speed -    
Visibility 7 miles    
Events Rain    
Averages and records for this station are not official NWS values.
T = Trace of Precipitation, MM = Missing Value Source: NWS Daily Summary

Daily Weather History Graph

Daily Weather History Graph

Search for Another Location

Airport or City:

Trip Planner

Search our weather history database for the weather conditions in past years. The results will help you decide how hot, cold, wet, or windy it might be!

Date:

Astronomy

Sep. 13, 2014 Rise Set
Actual Time 6:38 AM PDT 7:05 PM PDT
Civil Twilight 6:13 AM PDT 7:30 PM PDT
Nautical Twilight 5:43 AM PDT 8:00 PM PDT
Astronomical Twilight 5:13 AM PDT 8:30 PM PDT
Moon 10:29 PM PDT (9/13) 11:36 AM PDT (9/13)
Length of Visible Light 13h 17m
Length of Day
12h 27m
Waning Gibbous, 73% of the Moon is Illuminated
Sep 13
Waning Gibbous
Sep 15
Last Quarter
Sep 23
New
Oct 1
First Quarter
Oct 8
Full

Hourly Weather History & Observations

Time (PDT) Temp. Heat Index Dew Point Humidity Pressure Visibility Wind Dir Wind Speed Gust Speed Precip Events Conditions
12:56 AM 66.9 °F - 62.1 °F 84% 29.79 in 8.0 mi Calm Calm - N/A   Clear
1:36 AM 66.0 °F - 61.0 °F 84% 29.78 in 1.8 mi Calm Calm - N/A   Haze
1:42 AM 66.0 °F - 61.0 °F 84% 29.78 in 1.0 mi Calm Calm - N/A   Haze
1:54 AM 66.2 °F - 60.8 °F 83% 29.78 in 2.0 mi Calm Calm - N/A   Haze
1:56 AM 64.9 °F - 61.0 °F 87% 29.78 in 2.5 mi Calm Calm - N/A   Partly Cloudy
2:03 AM 64.9 °F - 61.0 °F 87% 29.78 in 3.0 mi WSW 3.5 mph - N/A   Partly Cloudy
2:08 AM 64.9 °F - 61.0 °F 87% 29.78 in 1.8 mi Calm Calm - N/A   Partly Cloudy
2:21 AM 64.0 °F - 60.1 °F 87% 29.78 in 2.5 mi Calm Calm - N/A   Scattered Clouds
2:39 AM 66.0 °F - 61.0 °F 84% 29.78 in 3.0 mi Calm Calm - N/A   Haze
2:56 AM 64.9 °F - 61.0 °F 87% 29.79 in 6.0 mi Calm Calm - N/A   Scattered Clouds
3:56 AM 66.0 °F - 61.0 °F 84% 29.78 in 6.0 mi NE 4.6 mph - N/A   Haze
4:56 AM 64.9 °F - 60.1 °F 84% 29.78 in 5.0 mi North 4.6 mph - N/A   Haze
5:56 AM 64.9 °F - 60.1 °F 84% 29.79 in 6.0 mi NE 4.6 mph - N/A   Haze
5:59 AM 64.9 °F - 60.1 °F 84% 29.78 in 7.0 mi NE 4.6 mph - N/A   Clear
6:56 AM 64.9 °F - 60.1 °F 84% 29.80 in 5.0 mi NNE 3.5 mph - N/A   Haze
7:56 AM 69.1 °F - 62.1 °F 78% 29.81 in 7.0 mi North 3.5 mph - N/A   Clear
8:56 AM 73.9 °F - 64.0 °F 71% 29.81 in 7.0 mi WNW 4.6 mph - N/A   Clear
9:56 AM 80.1 °F 81.7 °F 64.0 °F 58% 29.81 in 10.0 mi WNW 5.8 mph - N/A   Clear
10:56 AM 80.1 °F 81.9 °F 64.9 °F 60% 29.81 in 10.0 mi West 10.4 mph - N/A   Partly Cloudy
11:56 AM 82.0 °F 83.8 °F 64.9 °F 56% 29.79 in 10.0 mi NW 8.1 mph - N/A   Partly Cloudy
12:56 PM 80.1 °F 82.1 °F 66.0 °F 62% 29.78 in 10.0 mi West 17.3 mph - N/A   Partly Cloudy
1:56 PM 80.1 °F 81.5 °F 63.0 °F 56% 29.78 in 10.0 mi West 16.1 mph - N/A   Partly Cloudy
2:56 PM 82.9 °F 84.0 °F 63.0 °F 51% 29.75 in 10.0 mi WNW 11.5 mph - N/A   Partly Cloudy
3:56 PM 82.9 °F 84.4 °F 64.0 °F 53% 29.75 in 10.0 mi West 11.5 mph - N/A   Partly Cloudy
4:56 PM 80.1 °F 81.5 °F 63.0 °F 56% 29.75 in 10.0 mi WNW 8.1 mph - N/A   Partly Cloudy
5:56 PM 77.0 °F - 63.0 °F 62% 29.74 in 10.0 mi WNW 8.1 mph - N/A   Partly Cloudy
6:56 PM 73.0 °F - 63.0 °F 71% 29.73 in 10.0 mi NW 10.4 mph - N/A   Partly Cloudy
7:56 PM 71.1 °F - 63.0 °F 75% 29.74 in 10.0 mi NNW 5.8 mph - N/A   Partly Cloudy
8:56 PM 69.1 °F - 63.0 °F 81% 29.74 in 10.0 mi NW 6.9 mph - N/A   Clear
9:56 PM 71.1 °F - 63.0 °F 75% 29.74 in 9.0 mi NNW 4.6 mph - N/A   Clear
10:56 PM 71.1 °F - 63.0 °F 75% 29.73 in 8.0 mi NNW 5.8 mph - N/A   Partly Cloudy
11:56 PM 70.0 °F - 63.0 °F 78% 29.74 in 10.0 mi NNW 5.8 mph - 0.00 in Rain Light Rain